When you browse on this site, cookies collect data to enhance your experience and personalize the content and advertising you see.
Visit our Privacy Policy to learn more. By continuing to use the site, you agree to this use of cookies and data.
  • In Hungary
  • List of Countries
  • For 7 days
  • Water Temperature
  • Weather Map
  • News
  • Weather Widgets
  • user-avatar
    Login

    Hourly Weather Dubrovka

    Today, 21 February, Friday

    Time Temperature Precipitation Wind Pressure Humidity
    00:00 +1°C° 0 mm 2 mps 747 mmHg 96%
    01:00 -1°C° 0 mm 2 mps 747 mmHg 96%
    02:00 -1°C° 0 mm 2 mps 748 mmHg 98%
    03:00 -1°C° 0 mm 2 mps 748 mmHg 97%
    04:00 -1°C° 0 mm 2 mps 747 mmHg 96%
    05:00 +1°C° 0 mm 2 mps 747 mmHg 95%
    06:00 +1°C° 0 mm 2 mps 748 mmHg 94%
    07:00 +1°C° 0 mm 2 mps 748 mmHg 92%
    08:00 +1°C° 0 mm 2 mps 748 mmHg 90%
    15:00 +1°C° 0 mm 4 mps 747 mmHg 78%
    16:00 +2°C° 0 mm 3 mps 747 mmHg 81%
    17:00 +1°C° 0 mm 3 mps 747 mmHg 84%
    18:00 +1°C° 0 mm 3 mps 747 mmHg 84%
    19:00 0°C° 0 mm 3 mps 747 mmHg 83%
    20:00 -1°C° 0 mm 4 mps 747 mmHg 83%
    21:00 -1°C° 0 mm 4 mps 747 mmHg 84%
    22:00 -1°C° 0 mm 4 mps 747 mmHg 84%
    23:00 -1°C° 0 mm 4 mps 747 mmHg 84%

    Tomorrow, 22 February, Saturday

    Time Temperature Precipitation Wind Pressure Humidity
    00:00 -2°C° 0 mm 4 mps 747 mmHg 85%
    01:00 -2°C° 0 mm 4 mps 747 mmHg 86%
    02:00 -2°C° 0 mm 4 mps 748 mmHg 87%
    03:00 -2°C° 0 mm 4 mps 747 mmHg 87%
    04:00 -2°C° 0 mm 4 mps 747 mmHg 88%
    05:00 -2°C° 0 mm 4 mps 747 mmHg 89%
    06:00 -2°C° 0 mm 4 mps 747 mmHg 88%
    07:00 -1°C° 0 mm 5 mps 747 mmHg 87%
    08:00 -1°C° 0 mm 5 mps 747 mmHg 86%
    09:00 -1°C° 0 mm 5 mps 746 mmHg 84%
    10:00 0°C° 0 mm 5 mps 746 mmHg 81%
    11:00 -1°C° 0 mm 6 mps 745 mmHg 78%
    12:00 -1°C° 0 mm 6 mps 745 mmHg 77%
    13:00 -1°C° 0 mm 6 mps 745 mmHg 76%
    14:00 -1°C° 0 mm 6 mps 744 mmHg 75%
    15:00 -1°C° 0 mm 6 mps 743 mmHg 76%
    16:00 -1°C° 0 mm 6 mps 742 mmHg 76%
    17:00 -2°C° 0 mm 6 mps 741 mmHg 77%
    18:00 -2°C° 0 mm 7 mps 739 mmHg 77%
    19:00 -2°C° 0 mm 7 mps 738 mmHg 77%
    20:00 -2°C° 0 mm 8 mps 737 mmHg 76%
    21:00 -2°C° 0.7 mm 8 mps 735 mmHg 83%
    22:00 -3°C° 0.7 mm 9 mps 733 mmHg 89%
    23:00 -4°C° 0.7 mm 9 mps 732 mmHg 95%

    Day after tomorrow, 23 February, Sunday

    Time Temperature Precipitation Wind Pressure Humidity
    00:00 -3°C° 0.4 mm 9 mps 731 mmHg 93%
    01:00 -3°C° 0.4 mm 9 mps 730 mmHg 92%
    02:00 -3°C° 0.4 mm 9 mps 729 mmHg 90%
    03:00 -2°C° 0.6 mm 8 mps 728 mmHg 90%
    04:00 -1°C° 0.6 mm 6 mps 727 mmHg 89%
    05:00 0°C° 0.6 mm 5 mps 727 mmHg 89%
    06:00 0°C° 0 mm 5 mps 727 mmHg 87%
    07:00 -1°C° 0 mm 5 mps 727 mmHg 84%
    08:00 -1°C° 0 mm 5 mps 727 mmHg 82%
    09:00 -1°C° 0.2 mm 5 mps 727 mmHg 84%
    10:00 -1°C° 0.2 mm 5 mps 727 mmHg 86%
    11:00 -1°C° 0.2 mm 5 mps 727 mmHg 89%
    12:00 -1°C° 0.3 mm 5 mps 727 mmHg 91%
    13:00 -1°C° 0.3 mm 5 mps 728 mmHg 93%
    14:00 -1°C° 0.3 mm 5 mps 728 mmHg 94%
    15:00 -1°C° 0.2 mm 4 mps 728 mmHg 94%
    16:00 -2°C° 0.2 mm 4 mps 728 mmHg 94%
    17:00 -2°C° 0.2 mm 4 mps 728 mmHg 93%
    18:00 -2°C° 0 mm 4 mps 728 mmHg 92%
    19:00 -2°C° 0 mm 4 mps 728 mmHg 90%
    20:00 -1°C° 0 mm 3 mps 727 mmHg 89%
    21:00 -1°C° 0 mm 3 mps 727 mmHg 90%
    22:00 -1°C° 0 mm 3 mps 727 mmHg 91%
    23:00 -1°C° 0 mm 3 mps 727 mmHg 92%

    24 February, Monday

    Time Temperature Precipitation Wind Pressure Humidity
    00:00 -1°C° 0.1 mm 3 mps 727 mmHg 92%
    01:00 -1°C° 0.1 mm 3 mps 727 mmHg 93%
    02:00 -1°C° 0.1 mm 3 mps 727 mmHg 94%
    03:00 -1°C° 0.2 mm 3 mps 726 mmHg 95%
    04:00 -1°C° 0.2 mm 3 mps 726 mmHg 96%
    05:00 -1°C° 0.2 mm 3 mps 726 mmHg 97%
    06:00 -1°C° 0.3 mm 3 mps 726 mmHg 96%
    07:00 -1°C° 0.3 mm 3 mps 726 mmHg 95%
    08:00 -1°C° 0.3 mm 3 mps 727 mmHg 95%
    09:00 -1°C° 0.5 mm 3 mps 727 mmHg 95%
    10:00 0°C° 0.5 mm 3 mps 727 mmHg 95%
    11:00 0°C° 0.5 mm 3 mps 727 mmHg 96%
    12:00 -1°C° 0.3 mm 4 mps 728 mmHg 90%
    13:00 -1°C° 0.3 mm 4 mps 728 mmHg 84%
    14:00 -2°C° 0.3 mm 5 mps 728 mmHg 78%
    15:00 -2°C° 0 mm 5 mps 729 mmHg 82%
    16:00 -3°C° 0 mm 4 mps 729 mmHg 85%
    17:00 -4°C° 0 mm 4 mps 730 mmHg 88%
    18:00 -4°C° 0.1 mm 4 mps 731 mmHg 90%
    19:00 -5°C° 0.1 mm 5 mps 731 mmHg 91%
    20:00 -5°C° 0.1 mm 5 mps 732 mmHg 92%
    21:00 -5°C° 0.2 mm 5 mps 733 mmHg 91%
    22:00 -5°C° 0.2 mm 5 mps 733 mmHg 89%
    23:00 -5°C° 0.2 mm 5 mps 734 mmHg 88%

    25 February, Tuesday

    Time Temperature Precipitation Wind Pressure Humidity
    00:00 -5°C° 0 mm 5 mps 734 mmHg 87%
    01:00 -4°C° 0 mm 4 mps 735 mmHg 85%
    02:00 -5°C° 0 mm 4 mps 735 mmHg 84%
    03:00 -5°C° 0 mm 4 mps 736 mmHg 84%
    04:00 -7°C° 0 mm 4 mps 736 mmHg 84%
    05:00 -7°C° 0 mm 4 mps 737 mmHg 84%
    06:00 -7°C° 0 mm 4 mps 737 mmHg 83%
    07:00 -7°C° 0 mm 4 mps 737 mmHg 82%
    08:00 -7°C° 0 mm 4 mps 738 mmHg 81%
    09:00 -5°C° 0 mm 3 mps 738 mmHg 77%
    10:00 -4°C° 0 mm 3 mps 738 mmHg 74%
    11:00 -2°C° 0 mm 3 mps 738 mmHg 71%
    12:00 -2°C° 0 mm 3 mps 738 mmHg 70%
    13:00 -1°C° 0 mm 2 mps 737 mmHg 69%
    14:00 -1°C° 0 mm 2 mps 737 mmHg 68%
    15:00 -2°C° 0 mm 2 mps 737 mmHg 72%
    16:00 -2°C° 0 mm 2 mps 736 mmHg 76%
    17:00 -3°C° 0 mm 2 mps 736 mmHg 80%
    18:00 -3°C° 0 mm 2 mps 736 mmHg 79%
    19:00 -4°C° 0 mm 3 mps 735 mmHg 77%
    20:00 -4°C° 0 mm 3 mps 735 mmHg 76%
    21:00 -4°C° 0 mm 4 mps 734 mmHg 80%
    22:00 -4°C° 0 mm 4 mps 733 mmHg 84%
    23:00 -4°C° 0 mm 4 mps 733 mmHg 89%

    26 February, Wednesday

    Time Temperature Precipitation Wind Pressure Humidity
    00:00 -4°C° 0.5 mm 4 mps 732 mmHg 91%
    01:00 -4°C° 0.5 mm 4 mps 731 mmHg 92%
    02:00 -4°C° 0.5 mm 4 mps 731 mmHg 94%
    03:00 -4°C° 0.4 mm 4 mps 731 mmHg 95%
    04:00 -2°C° 0.4 mm 3 mps 730 mmHg 95%
    05:00 -2°C° 0.4 mm 3 mps 730 mmHg 95%
    06:00 -1°C° 0.2 mm 3 mps 730 mmHg 95%
    07:00 -1°C° 0.2 mm 3 mps 730 mmHg 95%
    08:00 -1°C° 0.2 mm 3 mps 730 mmHg 95%
    09:00 0°C° 0 mm 3 mps 730 mmHg 92%
    10:00 0°C° 0 mm 3 mps 730 mmHg 90%
    11:00 0°C° 0 mm 3 mps 730 mmHg 87%
    12:00 +1°C° 0 mm 3 mps 730 mmHg 86%
    13:00 +1°C° 0 mm 3 mps 729 mmHg 85%
    14:00 +1°C° 0 mm 3 mps 729 mmHg 84%
    15:00 +1°C° 0.2 mm 2 mps 729 mmHg 89%
    16:00 +1°C° 0.2 mm 2 mps 729 mmHg 93%
    17:00 -1°C° 0.2 mm 2 mps 729 mmHg 98%
    18:00 -1°C° 0.6 mm 2 mps 729 mmHg 98%
    19:00 -1°C° 0.6 mm 2 mps 729 mmHg 97%
    20:00 -1°C° 0.6 mm 2 mps 729 mmHg 97%
    21:00 -1°C° 0 mm 2 mps 729 mmHg 96%
    22:00 -1°C° 0 mm 2 mps 730 mmHg 94%
    23:00 -1°C° 0 mm 2 mps 730 mmHg 93%
    Show more